Year,Month,Day,Hour,Minute,Value (Times are PST for temperature in C)
2017,09,04,00,00,26.30
2017,09,04,00,01,26.30
2017,09,04,00,02,26.20
2017,09,04,00,03,26.20
2017,09,04,00,04,26.10
2017,09,04,00,05,26.10
2017,09,04,00,06,26.10
2017,09,04,00,07,26.00
2017,09,04,00,08,25.90
2017,09,04,00,09,25.90
2017,09,04,00,10,25.90
2017,09,04,00,11,25.90
2017,09,04,00,12,25.80
2017,09,04,00,13,25.80
2017,09,04,00,14,25.80
2017,09,04,00,15,25.80
2017,09,04,00,16,25.70
2017,09,04,00,17,25.70
2017,09,04,00,18,25.70
2017,09,04,00,19,25.60
2017,09,04,00,20,25.60
2017,09,04,00,21,25.60
2017,09,04,00,22,25.60
2017,09,04,00,23,25.60
2017,09,04,00,24,25.60
2017,09,04,00,25,25.60
2017,09,04,00,26,25.60
2017,09,04,00,27,25.60
2017,09,04,00,28,25.60
2017,09,04,00,29,25.60
2017,09,04,00,30,25.60
2017,09,04,00,31,25.60
2017,09,04,00,32,25.60
2017,09,04,00,33,25.60
2017,09,04,00,34,25.60
2017,09,04,00,35,25.60
2017,09,04,00,36,25.60
2017,09,04,00,37,25.60
2017,09,04,00,38,25.60
2017,09,04,00,39,25.60
2017,09,04,00,40,25.60
2017,09,04,00,41,25.70
2017,09,04,00,42,25.70
2017,09,04,00,43,25.70
2017,09,04,00,44,25.70
2017,09,04,00,45,25.70
2017,09,04,00,46,25.70
2017,09,04,00,47,25.70
2017,09,04,00,48,25.70
2017,09,04,00,49,25.70
2017,09,04,00,50,25.70
2017,09,04,00,51,25.70
2017,09,04,00,52,25.70
2017,09,04,00,53,25.70
2017,09,04,00,54,25.60
2017,09,04,00,55,25.60
2017,09,04,00,56,25.60
2017,09,04,00,57,25.60
2017,09,04,00,58,25.50
2017,09,04,00,59,25.50
2017,09,04,01,00,25.50
2017,09,04,01,01,25.50
2017,09,04,01,02,25.50
2017,09,04,01,03,25.50
2017,09,04,01,04,25.50
2017,09,04,01,05,25.50
2017,09,04,01,06,25.50
2017,09,04,01,07,25.50
2017,09,04,01,08,25.50
2017,09,04,01,09,25.50
2017,09,04,01,10,25.50
2017,09,04,01,11,25.50
2017,09,04,01,12,25.50
2017,09,04,01,13,25.50
2017,09,04,01,14,25.60
2017,09,04,01,15,25.60
2017,09,04,01,16,25.50
2017,09,04,01,17,25.60
2017,09,04,01,18,25.50
2017,09,04,01,19,25.50
2017,09,04,01,20,25.50
2017,09,04,01,21,25.50
2017,09,04,01,22,25.50
2017,09,04,01,23,25.60
2017,09,04,01,24,25.60
2017,09,04,01,25,25.60
2017,09,04,01,26,25.60
2017,09,04,01,27,25.60
2017,09,04,01,28,25.50
2017,09,04,01,29,25.50
2017,09,04,01,30,25.50
2017,09,04,01,31,25.50
2017,09,04,01,32,25.50
2017,09,04,01,33,25.60
2017,09,04,01,34,25.50
2017,09,04,01,35,25.50
2017,09,04,01,36,25.50
2017,09,04,01,37,25.50
2017,09,04,01,38,25.50
2017,09,04,01,39,25.50
2017,09,04,01,40,25.40
2017,09,04,01,41,25.40
2017,09,04,01,42,25.40
2017,09,04,01,43,25.30
2017,09,04,01,44,25.30
2017,09,04,01,45,25.30
2017,09,04,01,46,25.20
2017,09,04,01,47,25.20
2017,09,04,01,48,25.20
2017,09,04,01,49,25.20
2017,09,04,01,50,25.20
2017,09,04,01,51,25.20
2017,09,04,01,52,25.20
2017,09,04,01,53,25.20
2017,09,04,01,54,25.20
2017,09,04,01,55,25.20
2017,09,04,01,56,25.20
2017,09,04,01,57,25.20
2017,09,04,01,58,25.20
2017,09,04,01,59,25.20
2017,09,04,02,00,25.20
2017,09,04,02,01,25.20
2017,09,04,02,02,25.20
2017,09,04,02,03,25.20
2017,09,04,02,04,25.20
2017,09,04,02,05,25.20
2017,09,04,02,06,25.20
2017,09,04,02,07,25.20
2017,09,04,02,08,25.20
2017,09,04,02,09,25.10
2017,09,04,02,10,25.10
2017,09,04,02,11,25.10
2017,09,04,02,12,25.10
2017,09,04,02,13,25.10
2017,09,04,02,14,25.10
2017,09,04,02,15,25.10
2017,09,04,02,16,25.10
2017,09,04,02,17,25.00
2017,09,04,02,18,25.00
2017,09,04,02,19,25.00
2017,09,04,02,20,25.00
2017,09,04,02,21,25.00
2017,09,04,02,22,25.00
2017,09,04,02,23,25.00
2017,09,04,02,24,25.00
2017,09,04,02,25,25.00
2017,09,04,02,26,25.00
2017,09,04,02,27,24.90
2017,09,04,02,28,24.90
2017,09,04,02,29,24.90
2017,09,04,02,30,24.90
2017,09,04,02,31,24.90
2017,09,04,02,32,24.90
2017,09,04,02,33,24.90
2017,09,04,02,34,24.90
2017,09,04,02,35,24.90
2017,09,04,02,36,24.90
2017,09,04,02,37,24.90
2017,09,04,02,38,24.90
2017,09,04,02,39,24.90
2017,09,04,02,40,24.90
2017,09,04,02,41,24.90
2017,09,04,02,42,24.90
2017,09,04,02,43,24.90
2017,09,04,02,44,24.90
2017,09,04,02,45,24.90
2017,09,04,02,46,24.90
2017,09,04,02,47,24.90
2017,09,04,02,48,24.90
2017,09,04,02,49,24.90
2017,09,04,02,50,25.00
2017,09,04,02,51,25.00
2017,09,04,02,52,24.90
2017,09,04,02,53,24.90
2017,09,04,02,54,24.90
2017,09,04,02,55,24.90
2017,09,04,02,56,24.80
2017,09,04,02,57,24.80
2017,09,04,02,58,24.70
2017,09,04,02,59,24.70
2017,09,04,03,00,24.70
2017,09,04,03,01,24.60
2017,09,04,03,02,24.60
2017,09,04,03,03,24.60
2017,09,04,03,04,24.60
2017,09,04,03,05,24.50
2017,09,04,03,06,24.50
2017,09,04,03,07,24.50
2017,09,04,03,08,24.40
2017,09,04,03,09,24.40
2017,09,04,03,10,24.40
2017,09,04,03,11,24.40
2017,09,04,03,12,24.40
2017,09,04,03,13,24.30
2017,09,04,03,14,24.30
2017,09,04,03,15,24.30
2017,09,04,03,16,24.30
2017,09,04,03,17,24.30
2017,09,04,03,18,24.30
2017,09,04,03,19,24.30
2017,09,04,03,20,24.20
2017,09,04,03,21,24.20
2017,09,04,03,22,24.20
2017,09,04,03,23,24.20
2017,09,04,03,24,24.20
2017,09,04,03,25,24.20
2017,09,04,03,26,24.20
2017,09,04,03,27,24.20
2017,09,04,03,28,24.20
2017,09,04,03,29,24.20
2017,09,04,03,30,24.20
2017,09,04,03,31,24.20
2017,09,04,03,32,24.10
2017,09,04,03,33,24.10
2017,09,04,03,34,24.00
2017,09,04,03,35,24.00
2017,09,04,03,36,23.90
2017,09,04,03,37,23.90
2017,09,04,03,38,23.90
2017,09,04,03,39,23.80
2017,09,04,03,40,23.80
2017,09,04,03,41,23.80
2017,09,04,03,42,23.80
2017,09,04,03,43,23.80
2017,09,04,03,44,23.80
2017,09,04,03,45,23.80
2017,09,04,03,46,23.80
2017,09,04,03,47,23.80
2017,09,04,03,48,23.80
2017,09,04,03,49,23.80
2017,09,04,03,50,23.80
2017,09,04,03,51,23.90
2017,09,04,03,52,23.90
2017,09,04,03,53,23.90
2017,09,04,03,54,23.90
2017,09,04,03,55,23.90
2017,09,04,03,56,23.90
2017,09,04,03,57,24.00
2017,09,04,03,58,24.00
2017,09,04,03,59,24.00
2017,09,04,04,00,24.10
2017,09,04,04,01,24.10
2017,09,04,04,02,24.10
2017,09,04,04,03,24.10
2017,09,04,04,04,24.10
2017,09,04,04,05,24.10
2017,09,04,04,06,24.10
2017,09,04,04,07,24.10
2017,09,04,04,08,24.10
2017,09,04,04,09,24.10
2017,09,04,04,10,24.10
2017,09,04,04,11,24.10
2017,09,04,04,12,24.10
2017,09,04,04,13,24.10
2017,09,04,04,14,24.10
2017,09,04,04,15,24.10
2017,09,04,04,16,24.10
2017,09,04,04,17,24.10
2017,09,04,04,18,24.10
2017,09,04,04,19,24.00
2017,09,04,04,20,24.00
2017,09,04,04,21,23.90
2017,09,04,04,22,23.90
2017,09,04,04,23,23.90
2017,09,04,04,24,23.90
2017,09,04,04,25,23.90
2017,09,04,04,26,23.90
2017,09,04,04,27,23.90
2017,09,04,04,28,23.90
2017,09,04,04,29,23.90
2017,09,04,04,30,23.90
2017,09,04,04,31,23.90
2017,09,04,04,32,23.90
2017,09,04,04,33,23.90
2017,09,04,04,34,23.90
2017,09,04,04,35,23.90
2017,09,04,04,36,23.90
2017,09,04,04,37,23.90
2017,09,04,04,38,23.90
2017,09,04,04,39,23.90
2017,09,04,04,40,23.90
2017,09,04,04,41,23.90
2017,09,04,04,42,23.90
2017,09,04,04,43,23.90
2017,09,04,04,44,23.90
2017,09,04,04,45,23.90
2017,09,04,04,46,23.90
2017,09,04,04,47,23.90
2017,09,04,04,48,23.90
2017,09,04,04,49,23.80
2017,09,04,04,50,23.80
2017,09,04,04,51,23.90
2017,09,04,04,52,23.80
2017,09,04,04,53,23.80
2017,09,04,04,54,23.80
2017,09,04,04,55,23.80
2017,09,04,04,56,23.80
2017,09,04,04,57,23.80
2017,09,04,04,58,23.80
2017,09,04,04,59,23.80
2017,09,04,05,00,23.80
2017,09,04,05,01,23.80
2017,09,04,05,02,23.80
2017,09,04,05,03,23.80
2017,09,04,05,04,23.80
2017,09,04,05,05,23.80
2017,09,04,05,06,23.70
2017,09,04,05,07,23.70
2017,09,04,05,08,23.70
2017,09,04,05,09,23.70
2017,09,04,05,10,23.70
2017,09,04,05,11,23.70
2017,09,04,05,12,23.70
2017,09,04,05,13,23.60
2017,09,04,05,14,23.60
2017,09,04,05,15,23.60
2017,09,04,05,16,23.60
2017,09,04,05,17,23.60
2017,09,04,05,18,23.60
2017,09,04,05,19,23.60
2017,09,04,05,20,23.60
2017,09,04,05,21,23.50
2017,09,04,05,22,23.50
2017,09,04,05,23,23.40
2017,09,04,05,24,23.40
2017,09,04,05,25,23.40
2017,09,04,05,26,23.30
2017,09,04,05,27,23.30
2017,09,04,05,28,23.30
2017,09,04,05,29,23.30
2017,09,04,05,30,23.30
2017,09,04,05,31,23.30
2017,09,04,05,32,23.30
2017,09,04,05,33,23.30
2017,09,04,05,34,23.30
2017,09,04,05,35,23.30
2017,09,04,05,36,23.30
2017,09,04,05,37,23.30
2017,09,04,05,38,23.30
2017,09,04,05,39,23.30
2017,09,04,05,40,23.30
2017,09,04,05,41,23.30
2017,09,04,05,42,23.20
2017,09,04,05,43,23.20
2017,09,04,05,44,23.20
2017,09,04,05,45,23.20
2017,09,04,05,46,23.20
2017,09,04,05,47,23.20
2017,09,04,05,48,23.20
2017,09,04,05,49,23.30
2017,09,04,05,50,23.30
2017,09,04,05,51,23.30
2017,09,04,05,52,23.30
2017,09,04,05,53,23.30
2017,09,04,05,54,23.30
2017,09,04,05,55,23.30
2017,09,04,05,56,23.30
2017,09,04,05,57,23.20
2017,09,04,05,58,23.20
2017,09,04,05,59,23.20
2017,09,04,06,00,23.20
2017,09,04,06,01,23.20
2017,09,04,06,02,23.10
2017,09,04,06,03,23.10
2017,09,04,06,04,23.10
2017,09,04,06,05,23.10
2017,09,04,06,06,23.10
2017,09,04,06,07,23.00
2017,09,04,06,08,23.00
2017,09,04,06,09,23.00
2017,09,04,06,10,23.00
2017,09,04,06,11,22.90
2017,09,04,06,12,22.90
2017,09,04,06,13,22.90
2017,09,04,06,14,22.90
2017,09,04,06,15,22.90
2017,09,04,06,16,22.90
2017,09,04,06,17,22.80
2017,09,04,06,18,22.80
2017,09,04,06,19,22.80
2017,09,04,06,20,22.80
2017,09,04,06,21,22.80
2017,09,04,06,22,22.80
2017,09,04,06,23,22.80
2017,09,04,06,24,22.80
2017,09,04,06,25,22.80
2017,09,04,06,26,22.80
2017,09,04,06,27,22.80
2017,09,04,06,28,22.80
2017,09,04,06,29,22.80
2017,09,04,06,30,22.80
2017,09,04,06,31,22.80
2017,09,04,06,32,22.80
2017,09,04,06,33,22.80
2017,09,04,06,34,22.80
2017,09,04,06,35,22.80
2017,09,04,06,36,22.80
2017,09,04,06,37,22.80
2017,09,04,06,38,22.80
2017,09,04,06,39,22.80
2017,09,04,06,40,22.80
2017,09,04,06,41,22.80
2017,09,04,06,42,22.80
2017,09,04,06,43,22.80
2017,09,04,06,44,22.70
2017,09,04,06,45,22.70
2017,09,04,06,46,22.60
2017,09,04,06,47,22.60
2017,09,04,06,48,22.50
2017,09,04,06,49,22.50
2017,09,04,06,50,22.40
2017,09,04,06,51,22.30
2017,09,04,06,52,22.30
2017,09,04,06,53,22.20
2017,09,04,06,54,22.20
2017,09,04,06,55,22.20
2017,09,04,06,56,22.10
2017,09,04,06,57,22.10
2017,09,04,06,58,22.10
2017,09,04,06,59,22.10
2017,09,04,07,00,22.10
2017,09,04,07,01,22.00
2017,09,04,07,02,22.00
2017,09,04,07,03,22.00
2017,09,04,07,04,22.00
2017,09,04,07,05,22.00
2017,09,04,07,06,22.00
2017,09,04,07,07,22.00
2017,09,04,07,08,22.00
2017,09,04,07,09,22.10
2017,09,04,07,10,22.10
2017,09,04,07,11,22.10
2017,09,04,07,12,22.10
2017,09,04,07,13,22.10
2017,09,04,07,14,22.10
2017,09,04,07,15,22.10
2017,09,04,07,16,22.10
2017,09,04,07,17,22.10
2017,09,04,07,18,22.10
2017,09,04,07,19,22.20
2017,09,04,07,20,22.20
2017,09,04,07,21,22.20
2017,09,04,07,22,22.20
2017,09,04,07,23,22.20
2017,09,04,07,24,22.20
2017,09,04,07,25,22.20
2017,09,04,07,26,22.20
2017,09,04,07,27,22.20
2017,09,04,07,28,22.20
2017,09,04,07,29,22.30
2017,09,04,07,30,22.30
2017,09,04,07,31,22.30
2017,09,04,07,32,22.30
2017,09,04,07,33,22.30
2017,09,04,07,34,22.30
2017,09,04,07,35,22.30
2017,09,04,07,36,22.40
2017,09,04,07,37,22.50
2017,09,04,07,38,22.50
2017,09,04,07,39,22.60
2017,09,04,07,40,22.70
2017,09,04,07,41,22.70
2017,09,04,07,42,22.80
2017,09,04,07,43,22.80
2017,09,04,07,44,22.90
2017,09,04,07,45,23.00
2017,09,04,07,46,23.10
2017,09,04,07,47,23.10
2017,09,04,07,48,23.20
2017,09,04,07,49,23.30
2017,09,04,07,50,23.30
2017,09,04,07,51,23.40
2017,09,04,07,52,23.40
2017,09,04,07,53,23.50
2017,09,04,07,54,23.50
2017,09,04,07,55,23.60
2017,09,04,07,56,23.60
2017,09,04,07,57,23.60
2017,09,04,07,58,23.70
2017,09,04,07,59,23.70
2017,09,04,08,00,23.70
2017,09,04,08,01,23.80
2017,09,04,08,02,23.80
2017,09,04,08,03,23.80
2017,09,04,08,04,23.80
2017,09,04,08,05,23.80
2017,09,04,08,06,23.90
2017,09,04,08,07,23.90
2017,09,04,08,08,23.90
2017,09,04,08,09,23.90
2017,09,04,08,10,24.00
2017,09,04,08,11,24.00
2017,09,04,08,12,24.10
2017,09,04,08,13,24.10
2017,09,04,08,14,24.10
2017,09,04,08,15,24.10
2017,09,04,08,16,24.10
2017,09,04,08,17,24.20
2017,09,04,08,18,24.20
2017,09,04,08,19,24.20
2017,09,04,08,20,24.20
2017,09,04,08,21,24.20
2017,09,04,08,22,24.20
2017,09,04,08,23,24.30
2017,09,04,08,24,24.30
2017,09,04,08,25,24.30
2017,09,04,08,26,24.30
2017,09,04,08,27,24.30
2017,09,04,08,28,24.40
2017,09,04,08,29,24.40
2017,09,04,08,30,24.40
2017,09,04,08,31,24.40
2017,09,04,08,32,24.50
2017,09,04,08,33,24.50
2017,09,04,08,34,24.50
2017,09,04,08,35,24.60
2017,09,04,08,36,24.60
2017,09,04,08,37,24.60
2017,09,04,08,38,24.70
2017,09,04,08,39,24.70
2017,09,04,08,40,24.80
2017,09,04,08,41,24.80
2017,09,04,08,42,24.80
2017,09,04,08,43,24.90
2017,09,04,08,44,24.90
2017,09,04,08,45,24.90
2017,09,04,08,46,25.00
2017,09,04,08,47,25.10
2017,09,04,08,48,25.10
2017,09,04,08,49,25.10
2017,09,04,08,50,25.20
2017,09,04,08,51,25.20
2017,09,04,08,52,25.20
2017,09,04,08,53,25.20
2017,09,04,08,54,25.20
2017,09,04,08,55,25.30
2017,09,04,08,56,25.30
2017,09,04,08,57,25.30
2017,09,04,08,58,25.40
2017,09,04,08,59,25.40
2017,09,04,09,00,25.40
2017,09,04,09,01,25.50
2017,09,04,09,02,25.50
2017,09,04,09,03,25.50
2017,09,04,09,04,25.60
2017,09,04,09,05,25.60
2017,09,04,09,06,25.60
2017,09,04,09,07,25.60
2017,09,04,09,08,25.70
2017,09,04,09,09,25.70
2017,09,04,09,10,25.70
2017,09,04,09,11,25.80
2017,09,04,09,12,25.80
2017,09,04,09,13,25.80
2017,09,04,09,14,25.80
2017,09,04,09,15,25.80
2017,09,04,09,16,25.90
2017,09,04,09,17,25.90
2017,09,04,09,18,25.90
2017,09,04,09,19,26.00
2017,09,04,09,20,26.00
2017,09,04,09,21,26.00
2017,09,04,09,22,26.10
2017,09,04,09,23,26.10
2017,09,04,09,24,26.20
2017,09,04,09,25,26.20
2017,09,04,09,26,26.20
2017,09,04,09,27,26.30
2017,09,04,09,28,26.30
2017,09,04,09,29,26.30
2017,09,04,09,30,26.40
2017,09,04,09,31,26.40
2017,09,04,09,32,26.40
2017,09,04,09,33,26.40
2017,09,04,09,34,26.40
2017,09,04,09,35,26.40
2017,09,04,09,36,26.50
2017,09,04,09,37,26.50
2017,09,04,09,38,26.50
2017,09,04,09,39,26.60
2017,09,04,09,40,26.60
2017,09,04,09,41,26.60
2017,09,04,09,42,26.70
2017,09,04,09,43,26.80
2017,09,04,09,44,26.80
2017,09,04,09,45,26.80
2017,09,04,09,46,26.90
2017,09,04,09,47,26.90
2017,09,04,09,48,26.90
2017,09,04,09,49,26.90
2017,09,04,09,50,26.90
2017,09,04,09,51,27.00
2017,09,04,09,52,27.00
2017,09,04,09,53,27.10
2017,09,04,09,54,27.10
2017,09,04,09,55,27.10
2017,09,04,09,56,27.10
2017,09,04,09,57,27.00
2017,09,04,09,58,27.00
2017,09,04,09,59,27.00
2017,09,04,10,00,27.00
2017,09,04,10,01,26.90
2017,09,04,10,02,26.90
2017,09,04,10,03,26.90
2017,09,04,10,04,26.90
2017,09,04,10,05,26.90
2017,09,04,10,06,26.90
2017,09,04,10,07,26.90
2017,09,04,10,08,26.90
2017,09,04,10,09,26.90
2017,09,04,10,10,26.90
2017,09,04,10,11,26.90
2017,09,04,10,12,26.90
2017,09,04,10,13,26.90
2017,09,04,10,14,27.00
2017,09,04,10,15,27.00
2017,09,04,10,16,27.10
2017,09,04,10,17,27.10
2017,09,04,10,18,27.10
2017,09,04,10,19,27.10
2017,09,04,10,20,27.10
2017,09,04,10,21,27.10
2017,09,04,10,22,27.10
2017,09,04,10,23,27.10
2017,09,04,10,24,27.10
2017,09,04,10,25,27.10
2017,09,04,10,26,27.10
2017,09,04,10,27,27.10
2017,09,04,10,28,27.10
2017,09,04,10,29,27.20
2017,09,04,10,30,27.20
2017,09,04,10,31,27.20
2017,09,04,10,32,27.20
2017,09,04,10,33,27.30
2017,09,04,10,34,27.30
2017,09,04,10,35,27.30
2017,09,04,10,36,27.40
2017,09,04,10,37,27.40
2017,09,04,10,38,27.40
2017,09,04,10,39,27.40
2017,09,04,10,40,27.40
2017,09,04,10,41,27.40
2017,09,04,10,42,27.40
2017,09,04,10,43,27.50
2017,09,04,10,44,27.50
2017,09,04,10,45,27.50
2017,09,04,10,46,27.50
2017,09,04,10,47,27.50
2017,09,04,10,48,27.50
2017,09,04,10,49,27.50
2017,09,04,10,50,27.50
2017,09,04,10,51,27.50
2017,09,04,10,52,27.50
2017,09,04,10,53,27.40
2017,09,04,10,54,27.40
2017,09,04,10,55,27.50
2017,09,04,10,56,27.50
2017,09,04,10,57,27.60
2017,09,04,10,58,27.70
2017,09,04,10,59,27.70
2017,09,04,11,00,27.70
2017,09,04,11,01,27.70
2017,09,04,11,02,27.70
2017,09,04,11,03,27.60
2017,09,04,11,04,27.60
2017,09,04,11,05,27.70
2017,09,04,11,06,27.70
2017,09,04,11,07,27.70
2017,09,04,11,08,27.70
2017,09,04,11,09,27.80
2017,09,04,11,10,27.80
2017,09,04,11,11,27.80
2017,09,04,11,12,27.80
2017,09,04,11,13,27.80
2017,09,04,11,14,27.80
2017,09,04,11,15,27.90
2017,09,04,11,16,28.00
2017,09,04,11,17,28.10
2017,09,04,11,18,28.10
2017,09,04,11,19,28.20
2017,09,04,11,20,28.20
2017,09,04,11,21,28.30
2017,09,04,11,22,28.40
2017,09,04,11,23,28.50
2017,09,04,11,24,28.60
2017,09,04,11,25,28.60
2017,09,04,11,26,28.60
2017,09,04,11,27,28.60
2017,09,04,11,28,28.60
2017,09,04,11,29,28.60
2017,09,04,11,30,28.60
2017,09,04,11,31,28.60
2017,09,04,11,32,28.50
2017,09,04,11,33,28.40
2017,09,04,11,34,28.40
2017,09,04,11,35,28.30
2017,09,04,11,36,28.30
2017,09,04,11,37,28.30
2017,09,04,11,38,28.30
2017,09,04,11,39,28.20
2017,09,04,11,40,28.20
2017,09,04,11,41,28.20
2017,09,04,11,42,28.30
2017,09,04,11,43,28.30
2017,09,04,11,44,28.40
2017,09,04,11,45,28.40
2017,09,04,11,46,28.40
2017,09,04,11,47,28.40
2017,09,04,11,48,28.40
2017,09,04,11,49,28.40
2017,09,04,11,50,28.40
2017,09,04,11,51,28.40
2017,09,04,11,52,28.40
2017,09,04,11,53,28.50
2017,09,04,11,54,28.50
2017,09,04,11,55,28.60
2017,09,04,11,56,28.60
2017,09,04,11,57,28.60
2017,09,04,11,58,28.70
2017,09,04,11,59,28.80
2017,09,04,12,00,28.80
2017,09,04,12,01,28.90
2017,09,04,12,02,29.00
2017,09,04,12,03,29.10
2017,09,04,12,04,29.10
2017,09,04,12,05,29.20
2017,09,04,12,06,29.20
2017,09,04,12,07,29.20
2017,09,04,12,08,29.30
2017,09,04,12,09,29.30
2017,09,04,12,10,29.30
2017,09,04,12,11,29.30
2017,09,04,12,12,29.30
2017,09,04,12,13,29.30
2017,09,04,12,14,29.20
2017,09,04,12,15,29.20
2017,09,04,12,16,29.20
2017,09,04,12,17,29.30
2017,09,04,12,18,29.30
2017,09,04,12,19,29.40
2017,09,04,12,20,29.40
2017,09,04,12,21,29.40
2017,09,04,12,22,29.40
2017,09,04,12,23,29.50
2017,09,04,12,24,29.50
2017,09,04,12,25,29.50
2017,09,04,12,26,29.60
2017,09,04,12,27,29.60
2017,09,04,12,28,29.60
2017,09,04,12,29,29.50
2017,09,04,12,30,29.50
2017,09,04,12,31,29.40
2017,09,04,12,32,29.40
2017,09,04,12,33,29.40
2017,09,04,12,34,29.40
2017,09,04,12,35,29.40
2017,09,04,12,36,29.50
2017,09,04,12,37,29.60
2017,09,04,12,38,29.60
2017,09,04,12,39,29.70
2017,09,04,12,40,29.70
2017,09,04,12,41,29.70
2017,09,04,12,42,29.70
2017,09,04,12,43,29.70
2017,09,04,12,44,29.70
2017,09,04,12,45,29.70
2017,09,04,12,46,29.70
2017,09,04,12,47,29.80
2017,09,04,12,48,29.80
2017,09,04,12,49,29.80
2017,09,04,12,50,29.80
2017,09,04,12,51,29.80
2017,09,04,12,52,29.80
2017,09,04,12,53,29.80
2017,09,04,12,54,29.80
2017,09,04,12,55,29.80
2017,09,04,12,56,29.80
2017,09,04,12,57,29.80
2017,09,04,12,58,29.70
2017,09,04,12,59,29.70
2017,09,04,13,00,29.70
2017,09,04,13,01,29.60
2017,09,04,13,02,29.70
2017,09,04,13,03,29.70
2017,09,04,13,04,29.70
2017,09,04,13,05,29.80
2017,09,04,13,06,29.80
2017,09,04,13,07,29.80
2017,09,04,13,08,29.90
2017,09,04,13,09,29.90
2017,09,04,13,10,30.00
2017,09,04,13,11,30.00
2017,09,04,13,12,30.10
2017,09,04,13,13,30.10
2017,09,04,13,14,30.10
2017,09,04,13,15,30.10
2017,09,04,13,16,30.00
2017,09,04,13,17,29.90
2017,09,04,13,18,29.80
2017,09,04,13,19,29.80
2017,09,04,13,20,29.70
2017,09,04,13,21,29.70
2017,09,04,13,22,29.70
2017,09,04,13,23,29.80
2017,09,04,13,24,29.80
2017,09,04,13,25,29.80
2017,09,04,13,26,29.80
2017,09,04,13,27,29.80
2017,09,04,13,28,29.70
2017,09,04,13,29,29.80
2017,09,04,13,30,29.80
2017,09,04,13,31,29.80
2017,09,04,13,32,29.80
2017,09,04,13,33,29.90
2017,09,04,13,34,29.90
2017,09,04,13,35,29.90
2017,09,04,13,36,29.90
2017,09,04,13,37,29.90
2017,09,04,13,38,29.80
2017,09,04,13,39,29.80
2017,09,04,13,40,29.90
2017,09,04,13,41,29.90
2017,09,04,13,42,29.80
2017,09,04,13,43,29.80
2017,09,04,13,44,29.80
2017,09,04,13,45,29.90
2017,09,04,13,46,29.90
2017,09,04,13,47,30.00
2017,09,04,13,48,30.10
2017,09,04,13,49,30.10
2017,09,04,13,50,30.20
2017,09,04,13,51,30.20
2017,09,04,13,52,30.20
2017,09,04,13,53,30.20
2017,09,04,13,54,30.20
2017,09,04,13,55,30.20
2017,09,04,13,56,30.30
2017,09,04,13,57,30.30
2017,09,04,13,58,30.40
2017,09,04,13,59,30.40
2017,09,04,14,00,30.40
2017,09,04,14,01,30.40
2017,09,04,14,02,30.50
2017,09,04,14,03,30.50
2017,09,04,14,04,30.60
2017,09,04,14,05,30.70
2017,09,04,14,06,30.80
2017,09,04,14,07,30.90
2017,09,04,14,08,30.90
2017,09,04,14,09,31.00
2017,09,04,14,10,31.00
2017,09,04,14,11,31.10
2017,09,04,14,12,31.10
2017,09,04,14,13,31.10
2017,09,04,14,14,31.10
2017,09,04,14,15,31.20
2017,09,04,14,16,31.20
2017,09,04,14,17,31.20
2017,09,04,14,18,31.30
2017,09,04,14,19,31.30
2017,09,04,14,20,31.20
2017,09,04,14,21,31.20
2017,09,04,14,22,31.20
2017,09,04,14,23,31.20
2017,09,04,14,24,31.20
2017,09,04,14,25,31.20
2017,09,04,14,26,31.10
2017,09,04,14,27,31.20
2017,09,04,14,28,31.20
2017,09,04,14,29,31.10
2017,09,04,14,30,31.10
2017,09,04,14,31,31.10
2017,09,04,14,32,31.20
2017,09,04,14,33,31.20
2017,09,04,14,34,31.20
2017,09,04,14,35,31.20
2017,09,04,14,36,31.20
2017,09,04,14,37,31.10
2017,09,04,14,38,31.10
2017,09,04,14,39,31.10
2017,09,04,14,40,31.20
2017,09,04,14,41,31.20
2017,09,04,14,42,31.20
2017,09,04,14,43,31.20
2017,09,04,14,44,31.20
2017,09,04,14,45,31.20
2017,09,04,14,46,31.10
2017,09,04,14,47,31.00
2017,09,04,14,48,31.00
2017,09,04,14,49,31.00
2017,09,04,14,50,31.00
2017,09,04,14,51,31.00
2017,09,04,14,52,31.00
2017,09,04,14,53,31.00
2017,09,04,14,54,30.90
2017,09,04,14,55,30.90
2017,09,04,14,56,30.90
2017,09,04,14,57,30.90
2017,09,04,14,58,31.00
2017,09,04,14,59,31.00
2017,09,04,15,00,31.10
2017,09,04,15,01,31.10
2017,09,04,15,02,31.20
2017,09,04,15,03,31.20
2017,09,04,15,04,31.20
2017,09,04,15,05,31.20
2017,09,04,15,06,31.20
2017,09,04,15,07,31.20
2017,09,04,15,08,31.20
2017,09,04,15,09,31.20
2017,09,04,15,10,31.20
2017,09,04,15,11,31.30
2017,09,04,15,12,31.30
2017,09,04,15,13,31.20
2017,09,04,15,14,31.20
2017,09,04,15,15,31.20
2017,09,04,15,16,31.20
2017,09,04,15,17,31.20
2017,09,04,15,18,31.30
2017,09,04,15,19,31.30
2017,09,04,15,20,31.30
2017,09,04,15,21,31.30
2017,09,04,15,22,31.20
2017,09,04,15,23,31.20
2017,09,04,15,24,31.30
2017,09,04,15,25,31.30
2017,09,04,15,26,31.30
2017,09,04,15,27,31.30
2017,09,04,15,28,31.30
2017,09,04,15,29,31.30
2017,09,04,15,30,31.30
2017,09,04,15,31,31.30
2017,09,04,15,32,31.30
2017,09,04,15,33,31.30
2017,09,04,15,34,31.30
2017,09,04,15,35,31.30
2017,09,04,15,36,31.30
2017,09,04,15,37,31.30
2017,09,04,15,38,31.30
2017,09,04,15,39,31.40
2017,09,04,15,40,31.40
2017,09,04,15,41,31.40
2017,09,04,15,42,31.50
2017,09,04,15,43,31.60
2017,09,04,15,44,31.60
2017,09,04,15,45,31.70
2017,09,04,15,46,31.70
2017,09,04,15,47,31.70
2017,09,04,15,48,31.70
2017,09,04,15,49,31.70
2017,09,04,15,50,31.60
2017,09,04,15,51,31.70
2017,09,04,15,52,31.70
2017,09,04,15,53,31.70
2017,09,04,15,54,31.80
2017,09,04,15,55,31.80
2017,09,04,15,56,31.80
2017,09,04,15,57,31.90
2017,09,04,15,58,31.90
2017,09,04,15,59,32.00
2017,09,04,16,00,32.00
2017,09,04,16,01,32.10
2017,09,04,16,02,32.10
2017,09,04,16,03,32.00
2017,09,04,16,04,32.00
2017,09,04,16,05,31.90
2017,09,04,16,06,31.80
2017,09,04,16,07,31.80
2017,09,04,16,08,31.80
2017,09,04,16,09,31.80
2017,09,04,16,10,31.80
2017,09,04,16,11,31.90
2017,09,04,16,12,31.90
2017,09,04,16,13,31.90
2017,09,04,16,14,31.90
2017,09,04,16,15,31.90
2017,09,04,16,16,31.90
2017,09,04,16,17,31.90
2017,09,04,16,18,31.90
2017,09,04,16,19,32.00
2017,09,04,16,20,32.00
2017,09,04,16,21,32.00
2017,09,04,16,22,32.00
2017,09,04,16,23,32.00
2017,09,04,16,24,31.90
2017,09,04,16,25,31.90
2017,09,04,16,26,31.90
2017,09,04,16,27,31.80
2017,09,04,16,28,31.80
2017,09,04,16,29,31.70
2017,09,04,16,30,31.70
2017,09,04,16,31,31.70
2017,09,04,16,32,31.70
2017,09,04,16,33,31.70
2017,09,04,16,34,31.70
2017,09,04,16,35,31.70
2017,09,04,16,36,31.70
2017,09,04,16,37,31.70
2017,09,04,16,38,31.70
2017,09,04,16,39,31.60
2017,09,04,16,40,31.60
2017,09,04,16,41,31.60
2017,09,04,16,42,31.50
2017,09,04,16,43,31.50
2017,09,04,16,44,31.40
2017,09,04,16,45,31.40
2017,09,04,16,46,31.40
2017,09,04,16,47,31.30
2017,09,04,16,48,31.30
2017,09,04,16,49,31.30
2017,09,04,16,50,31.30
2017,09,04,16,51,31.40
2017,09,04,16,52,31.40
2017,09,04,16,53,31.40
2017,09,04,16,54,31.40
2017,09,04,16,55,31.40
2017,09,04,16,56,31.40
2017,09,04,16,57,31.40
2017,09,04,16,58,31.50
2017,09,04,16,59,31.50
2017,09,04,17,00,31.50
2017,09,04,17,01,31.50
2017,09,04,17,02,31.50
2017,09,04,17,03,31.50
2017,09,04,17,04,31.50
2017,09,04,17,05,31.50
2017,09,04,17,06,31.60
2017,09,04,17,07,31.60
2017,09,04,17,08,31.60
2017,09,04,17,09,31.60
2017,09,04,17,10,31.70
2017,09,04,17,11,31.80
2017,09,04,17,12,31.80
2017,09,04,17,13,31.80
2017,09,04,17,14,31.90
2017,09,04,17,15,32.00
2017,09,04,17,16,32.00
2017,09,04,17,17,32.10
2017,09,04,17,18,32.10
2017,09,04,17,19,32.10